Flag Weather past 2 weeks in Westerstede, Lower Saxony, Germany

Now
34 °F

Chilly.


Feels Like: 23 °F
Forecast: 27 / 35 °F
Wind: 17 mph from East

Location: Wittmundhaven

Current Time: Nov 29, 2014 at 8:46:08 AM

Latest Report: Nov 29, 2014 at 7:20 AM


Visibility: 4 mi

Pressure: 30.07 "Hg

Humidity: 81%

Dew point: 28 °F

Location of WesterstedeLocation

Historic Weather in Westerstede — Graph

°F

Westerstede temperature yesterday

Maximum temperature yesterday: 37 °F (at 4:20 AM)
Minimum temperature yesterday: 36 °F (at 12:20 AM)
Average temperature yesterday: 36 °F

Past Weeks' High & Low Weather Summary

 TemperatureHumidityPressure
High54 °F (Nov 14, 3:20 PM)100% (Nov 16, 8:20 AM)30.39 "Hg (Nov 16, 8:20 AM)
Low30 °F (Nov 21, 3:20 AM)71% (Nov 20, 12:20 PM)29.53 "Hg (Nov 16, 12:20 PM)
Average43 °F89%30.01 "Hg
* Reported Nov 14 7:20 AM — Nov 29 7:20 AM, Westerstede, Weather by CustomWeather, © 2014

Note: Actual official high and low records may vary slightly from our data, if they occured in-between our weather recording intervals... More about our weather records

Advertising

Westerstede weather history for previous 24 hours

 ConditionsComfort  
Time TempWeatherWind HumidityBarometerVisibility
7:20 AM
Nov 29
34 °FChilly.17 mph81%30.07 "Hg4 mi
6:20 AM34 °FChilly.17 mph81%30.07 "Hg4 mi
5:20 AM34 °FChilly.16 mph81%30.07 "Hg4 mi
4:20 AM34 °FChilly.15 mph81%30.07 "Hg4 mi
3:20 AM36 °FChilly.18 mph81%30.07 "Hg4 mi
2:20 AM36 °FChilly.20 mph81%30.07 "Hg3 mi
1:20 AM36 °FChilly.16 mph81%30.07 "Hg3 mi
12:20 AM36 °FChilly.20 mph81%30.07 "Hg3 mi
11:20 PM
Nov 28
36 °FChilly.18 mph81%30.07 "Hg4 mi
10:20 PM36 °FChilly.21 mph81%30.04 "Hg4 mi
9:20 PM36 °FChilly.18 mph81%30.04 "Hg4 mi
8:20 PM36 °FChilly.17 mph81%30.04 "Hg4 mi
7:20 PM36 °FChilly.18 mph75%30.04 "Hg4 mi
6:20 PM36 °FChilly.21 mph75%30.01 "Hg4 mi
5:20 PM36 °FChilly.23 mph75%30.01 "Hg4 mi
4:20 PM36 °FChilly.21 mph75%29.98 "Hg4 mi
3:20 PM36 °FChilly.21 mph81%29.98 "Hg4 mi
2:20 PM37 °FChilly.24 mph75%29.98 "Hg4 mi
1:20 PM37 °FChilly.24 mph75%29.98 "Hg4 mi
12:20 PM37 °FChilly.21 mph75%29.95 "Hg4 mi
12:01 PM37 °FPartly sunny.23 mph81%29.95 "Hg6 mi
11:20 AM37 °FPartly sunny.23 mph81%29.95 "Hg6 mi
10:53 AM37 °FPartly sunny.22 mph81%29.95 "Hg6 mi
10:20 AM37 °FScattered clouds.20 mph81%29.95 "Hg6 mi
9:20 AM37 °FPartly sunny.20 mph81%29.95 "Hg6 mi
8:20 AM37 °FPartly sunny.18 mph81%29.92 "Hg5 mi
Weather by CustomWeather, © 2014

See weather overviewHow to use our weather pages